STARLINK-34558

Last updated on Sat Jul 19 2025 00:02:08 GMT+0000 (Coordinated Universal Time)

1 64721U 25142AB 25199.58335648 -.01240640 00000+0 -21462-1 0 9996 2 64721 70.0002 194.6134 0003995 281.9296 197.0512 15.53409362 4122
UTC large
Height (km)
Speed (km/s)
/
Latitude / Longitude
Inclination (degrees)
Orbital Period (minutes)
Azimuth
Elevation
Range (km)
Doppler Factor

Next 0 passes for location: London (51.5072 / 0.1276)

Sorry there are no passes over London.